Regional Weather Roundup
Issued by NWS

Home | Current Version | Previous Version | Graphics & Text | Print | Product List | Glossary On
Versions: 1 2 3 4 5 6 7 8 9 10 11 12 13 14 15 16 17 18 19 20 21 22 23 24 25 26 27 28 29 30 31 32 33 34 35 36 37 38 39 40 41 42 43 44 45 46 47 48 49 50
564
ASUS45 KBOU 260410
RWRCO

WEATHER ROUNDUP FOR COLORADO
NATIONAL WEATHER SERVICE DENVER/BOULDER CO
1000 PM MDT SUN SEP 25 2016

NOTE: "FAIR" INDICATES FEW OR NO CLOUDS BELOW 12000 FEET WITH NO
SIGNIFICANT WEATHER AND/OR OBSTRUCTIONS TO VISIBILITY.

COZ001>005-013-030-031-260500-
...NORTHWEST COLORADO...

CITY           SKY/WX    TMP DP  RH WIND       PRES   REMARKS
CRAIG          FAIR      40  35  83 CALM      30.51R
HAYDEN         FAIR      46  30  53 S5        30.52R
MEEKER         FAIR      44  36  73 CALM      30.51R
MOUNT WERNER   NOT AVBL
STEAMBOAT SPGS FAIR      43  35  73 CALM      30.53R
WALDEN           N/A     39  27  60 NW5       30.59R
$$

COZ006>008-011-260500-
...WEST CENTRAL VALLEYS...

CITY           SKY/WX    TMP DP  RH WIND       PRES   REMARKS
GRAND JUNCTION FAIR      56  41  57 W3        30.39R
MONTROSE       FAIR      49  37  63 S8        30.46R
EAGLE          FAIR      50  30  46 E3        30.51R
RIFLE          FAIR      51  42  71 SE6       30.44R
DELTA          NOT AVBL
NUCLA          FAIR      54  32  43 SE8       30.46R
$$

COZ017>023-064>068-260500-
...SOUTHWEST COLORADO...

CITY           SKY/WX    TMP DP  RH WIND       PRES   REMARKS
DURANGO        FAIR      51  36  56 N6        30.41R
CORTEZ         FAIR      57  32  38 NE7       30.40R
PAGOSA SPRINGS FAIR      48  34  58 CALM      30.48R
TELLURIDE      FAIR      44  38  77 SE6       30.58R
WOLF CREEK PAS FAIR      37  27  65 MISG      30.72S
$$

COZ009-010-012-014-032>034-037-058>063-260500-
...CENTRAL COLORADO...

CITY           SKY/WX    TMP DP  RH WIND       PRES   REMARKS
ASPEN          FAIR      42  31  64 SW8       30.53R
BUENA VISTA    FAIR      47  29  49 E6        30.54R
COPPER MTN     FAIR      37  23  56 W12       30.72S
BERTHOUD PASS  FAIR      30  16  55 N21       30.72F WCI  17
COTTONWOOD PAS FAIR      46  28  49 CALM      30.62S
GUNNISON       FAIR      45  32  61 NW7       30.51R
KREMMLING      FAIR      43  23  45 CALM      30.55R
LEADVILLE      FAIR      36  20  52 N7        30.60R
MONARCH PASS   FAIR      34  27  75 NE8       30.81S WCI  27
SALIDA         FAIR      52  31  44 E7        30.60R
SUNLIGHT       FAIR      37  34  87 NE3       30.69S
WILKERSON PASS FAIR      34  27  75 SE7       30.71R WCI  28
$$

COZ069>075-260500-
...SAN LUIS VALLEY/SANGRE DE CRISTO MOUNTAINS...

CITY           SKY/WX    TMP DP  RH WIND       PRES   REMARKS
ALAMOSA        FAIR      42  30  62 SE7       30.46R
LA VETA PASS   FAIR      36  28  75 MISG      30.62S
SAGUACHE       NOT AVBL
$$

COZ035-036-038>040-260500-
...NORTHERN COLORADO FRONT RANGE...

CITY           SKY/WX    TMP DP  RH WIND       PRES   REMARKS
DENVER INTL AP FAIR      48  27  44 S12       30.44R
DMNS CITY PARK NOT AVBL
AURORA         CLEAR     51  30  44 S9        30.45S
FRONT RANGE AP NOT AVBL
ERIE MUNI ARPT FAIR      50  34  52 CALM      30.43S
BOULDER MUN AP FAIR      54  36  50 CALM      30.44R
CENTENNIAL     FAIR      50  29  44 S10       30.46R
BROOMFIELD     CLEAR     54  32  43 SW6       30.46R
FORT COLLINS   FAIR      54  36  50 E8        30.44R
LONGMONT       FAIR      51  35  55 W5        30.45S
$$

COZ041-046-047-076>085-087-088-260500-
...PIKES PEAK/PALMER DIVIDE AND SOUTHERN FOOTHILLS...

CITY           SKY/WX    TMP DP  RH WIND       PRES   REMARKS
COLO. SPRINGS  FAIR      52  29  41 E3        30.49R
A. F. ACADEMY  FAIR      42  29  61 N6        30.49R
SCHRIEVER AFB  NOT AVBL
ELLICOTT       NOT AVBL
FALCON         FAIR      47  29  48 CALM      30.52S
FORT CARSON    FAIR      55  30  38 SW8       30.46R
LIMON          FAIR      44  27  51 SW3       30.46R
MONUMENT HILL  FAIR      37  27  65 S6        30.53R
TRINIDAD       FAIR      50  31  48 CALM      30.46R
$$

COZ042>045-048>051-090-091-260500-
...NORTHEAST COLORADO...

CITY           SKY/WX    TMP DP  RH WIND       PRES   REMARKS
GREELEY ARPT   FAIR      52  36  54 NE6       30.44R
AKRON          FAIR      52  32  46 E6        30.43R
BURLINGTON     FAIR      50  34  54 NE3       30.41S
WRAY           FAIR      46  32  57 CALM      30.40S
STERLING       FAIR      46  34  61 W3        30.40S
HOLYOKE        FAIR      45  36  70 W5        30.40S
FORT MORGAN    FAIR      47  32  55 NE3       30.43S
$$

COZ086-089-092>099-260500-
...SOUTHEAST COLORADO...

CITY           SKY/WX    TMP DP  RH WIND       PRES   REMARKS
PUEBLO         FAIR      53  28  38 NE3       30.42R
LA JUNTA       FAIR      56  31  38 E6        30.41R
LAMAR          FAIR      51  34  52 E3        30.38R
SPRINGFIELD    NOT AVBL
$$




USA.gov is the U.S. government's official web portal to all federal, state and local government web resources and services.